Weather History for San Angelo, TX

Change the Weather History Date:

Tuesday, April 2, 2013

  Actual Average Record
Temperature  
Mean Temperature 60 °F 62 °F  
Max Temperature 74 °F 76 °F 98 °F (2011)
Min Temperature 45 °F 48 °F 30 °F (1970)
Degree Days  
Heating Degree Days 5 5  
Month to date heating degree days 5 10  
Since 1 July heating degree days 1794 2228  
Cooling Degree Days 0 2  
Month to date cooling degree days 4 4  
Year to date cooling degree days 79 42  
Growing Degree Days 10 (Base 50)    
Moisture  
Dew Point 52 °F    
Average Humidity 75    
Maximum Humidity 93    
Minimum Humidity 57    
Precipitation  
Precipitation 0.55 in 0.05 in 0.92 in (1911)
Month to date precipitation 0.55 0.09  
Year to date precipitation 2.38 3.87  
Snow  
Snow 0.00 in 0.00 in 0.00 in (2002)
Month to date snowfall 0.0 0.0  
Since 1 July snowfall 2.8 2.2  
Snow Depth 0.00 in    
Sea Level Pressure  
Sea Level Pressure 29.92 in    
Wind  
Wind Speed 13 mph (East)    
Max Wind Speed 33 mph    
Max Gust Speed 40 mph    
Visibility 9 miles    
Events Rain , Thunderstorm    
T = Trace of Precipitation, MM = Missing Value Source: NWS Daily Summary

Daily Weather History Graph

Daily Weather History Graph

Search for Another Location

Airport:

Trip Planner

Search our weather history database for the weather conditions in past years. The results will help you decide how hot, cold, wet, or windy it might be!

Date:

Astronomy

Apr. 02, 2013 Rise Set
Actual Time 7:29 AM CDT 8:02 PM CDT
Civil Twilight 7:04 AM CDT 8:26 PM CDT
Nautical Twilight 6:35 AM CDT 8:55 PM CDT
Astronomical Twilight 6:06 AM CDT 9:24 PM CDT
Moon 1:53 AM CDT (4/2) 12:36 PM CDT (4/2)
Length of Visible Light 13h 22m
Length of Day
12h 33m
Waning Gibbous, 55% of the Moon is Illuminated
Apr 2
Waning Gibbous
Apr 2
Last Quarter
Apr 10
New
Apr 18
First Quarter
Apr 25
Full

Hourly Weather History & Observations

Time (CDT) Temp. Windchill Dew Point Humidity Pressure Visibility Wind Dir Wind Speed Gust Speed Precip Events Conditions
1:51 AM 73.0 °F - 57.0 °F 57% 29.82 in 10.0 mi SSE 10.4 mph - N/A   Clear
3:51 AM 69.1 °F - 59.0 °F 70% 29.83 in 10.0 mi South 9.2 mph 19.6 mph N/A   Clear
4:41 AM 69.8 °F - 59.0 °F 68% 29.92 in 10.0 mi East 9.2 mph - N/A   Mostly Cloudy
4:51 AM 69.1 °F - 59.0 °F 70% 29.85 in 10.0 mi ESE 10.4 mph - N/A   Overcast
4:59 AM 69.8 °F - 57.2 °F 64% 29.92 in 10.0 mi ESE 8.1 mph - N/A   Overcast
5:13 AM 69.8 °F - 57.2 °F 64% 29.92 in 10.0 mi East 10.4 mph - N/A   Overcast
5:51 AM 68.0 °F - 55.9 °F 65% 29.86 in 10.0 mi East 11.5 mph - N/A   Overcast
6:51 AM 66.9 °F - 57.0 °F 70% 29.86 in 10.0 mi ESE 9.2 mph - N/A   Overcast
8:51 AM 66.0 °F - 60.1 °F 81% 29.91 in 6.0 mi SE 12.7 mph - 0.00 in Rain Light Rain
8:59 AM 64.4 °F - 60.8 °F 88% 29.97 in 5.0 mi SE 11.5 mph - 0.00 in   Haze
9:51 AM 66.9 °F - 60.1 °F 79% 29.92 in 10.0 mi SE 8.1 mph - 0.00 in   Overcast
10:41 AM 69.8 °F - 60.8 °F 73% 29.97 in 10.0 mi SE 10.4 mph - N/A   Overcast
10:51 AM 70.0 °F - 61.0 °F 73% 29.91 in 10.0 mi SE 11.5 mph - N/A   Overcast
11:49 AM 71.6 °F - 60.8 °F 69% 29.96 in 10.0 mi SSE 8.1 mph - N/A   Overcast
11:51 AM 71.1 °F - 61.0 °F 70% 29.90 in 10.0 mi SSE 6.9 mph - N/A   Overcast
12:51 PM 73.0 °F - 60.1 °F 64% 29.89 in 10.0 mi SSE 8.1 mph - N/A   Overcast
1:51 PM 73.0 °F - 60.1 °F 64% 29.89 in 10.0 mi SE 13.8 mph - 0.00 in   Overcast
2:07 PM 62.6 °F - 51.8 °F 68% 29.95 in 10.0 mi NNE 18.4 mph 24.2 mph 0.00 in Rain Light Rain
2:17 PM 62.6 °F - 50.0 °F 63% 29.94 in 10.0 mi NNE 19.6 mph - 0.00 in   Overcast
2:48 PM 62.6 °F - 50.0 °F 63% 29.94 in 10.0 mi NNE 15.0 mph - 0.00 in   Overcast
3:46 PM 60.8 °F - 46.4 °F 59% 29.95 in 10.0 mi NNE 17.3 mph - N/A   Overcast
3:51 PM 60.1 °F - 46.9 °F 62% 29.91 in 10.0 mi NNE 16.1 mph - N/A   Overcast
4:51 PM 57.0 °F - 45.0 °F 64% 29.91 in 10.0 mi North 11.5 mph - N/A   Overcast
5:51 PM 54.0 °F - 44.1 °F 69% 29.90 in 10.0 mi North 12.7 mph - 0.00 in   Overcast
7:15 PM 48.2 °F - 44.6 °F 87% 29.99 in 8.0 mi NW 18.4 mph - 0.00 in Rain , Thunderstorm Light Rain
7:51 PM 46.0 °F - 44.1 °F 93% 29.99 in 9.0 mi Calm Calm - 0.01 in Rain , Thunderstorm Light Rain
8:01 PM 46.4 °F 42.9 °F 44.6 °F 93% 29.98 in 1.8 mi ESE 6.9 mph - 0.14 in Rain , Thunderstorm Heavy Rain
8:13 PM 46.4 °F 40.7 °F 44.6 °F 93% 29.95 in 2.0 mi ENE 12.7 mph - 0.44 in Rain , Thunderstorm Heavy Thunderstorms and Rain
8:23 PM 46.4 °F 39.0 °F 44.6 °F 93% 29.92 in 4.0 mi East 19.6 mph 25.3 mph 0.50 in Rain , Thunderstorm Thunderstorms and Rain
8:51 PM 48.9 °F - 46.9 °F 93% 29.84 in 9.0 mi East 31.1 mph 35.7 mph 0.53 in Rain , Thunderstorm Light Rain
9:00 PM 46.4 °F 41.9 °F 46.4 °F 100% 29.93 in 10.0 mi East 9.2 mph 40.3 mph 0.01 in Rain Light Rain
9:13 PM 48.2 °F - 46.4 °F 93% 29.96 in 10.0 mi Variable 3.5 mph 28.8 mph 0.01 in   Overcast
9:31 PM 48.2 °F - 46.4 °F 93% 29.96 in 10.0 mi North 16.1 mph 19.6 mph 0.01 in Thunderstorm Mostly Cloudy
9:39 PM 48.2 °F - 46.4 °F 93% 29.97 in 10.0 mi NNE 16.1 mph - 0.01 in Thunderstorm Mostly Cloudy
9:51 PM 48.0 °F - 46.0 °F 93% 29.93 in 10.0 mi NNE 16.1 mph - 0.01 in   Mostly Cloudy
10:51 PM 46.9 °F - 44.1 °F 90% 29.95 in 10.0 mi North 19.6 mph - N/A   Overcast
11:51 PM 46.0 °F 38.5 °F 43.0 °F 89% 29.95 in 10.0 mi North 19.6 mph - N/A   Overcast